Bloomington, IN

1:19 AM EDT on March 27, 2017 (GMT -0400)
Monroe County

Weather History for KBMG - February, 2015

Change the Weather History Date:

Wednesday, February 11, 2015

  Actual Average Record
Temperature  
Mean Temperature 32 °F 32 °F  
Max Temperature 42 °F 42 °F 72 °F (1999)
Min Temperature 22 °F 22 °F -9 °F (2014)
Degree Days  
Heating Degree Days 33 33  
Month to date heating degree days 358 373  
Since 1 July heating degree days 3689 3548  
Cooling Degree Days 0 0  
Month to date cooling degree days 0 0  
Year to date cooling degree days 0 0  
Moisture  
Dew Point 27 °F    
Average Humidity 76    
Maximum Humidity 92    
Minimum Humidity 60    
Precipitation  
Precipitation T in 0.12 in 1.56 in (2009)
Month to date precipitation 0.46 1.18  
Year to date precipitation 2.67 4.49  
Sea Level Pressure  
Sea Level Pressure 30.09 in    
Wind  
Wind Speed 8 mph (West)    
Max Wind Speed 20 mph    
Max Gust Speed 28 mph    
Visibility 8 miles    
Events Rain    
T = Trace of Precipitation, MM = Missing Value Source: NWS Daily Summary

Daily Weather History Graph

Daily Weather History Graph

Search for Another Location

Airport or City:

Trip Planner

Search our weather history database for the weather conditions in past years. The results will help you decide how hot, cold, wet, or windy it might be!

Date:

Astronomy

Feb. 11, 2015 Rise Set
Actual Time 7:43 AM EST 6:18 PM EST
Civil Twilight 7:15 AM EST 6:46 PM EST
Nautical Twilight 6:44 AM EST 7:17 PM EST
Astronomical Twilight 6:12 AM EST 7:49 PM EST
Moon 12:45 AM EST (2/11) 11:35 AM EST (2/11)
Length of Visible Light 11h 30m
Length of Day
10h 35m
Waning Gibbous, 54% of the Moon is Illuminated
Feb 11
Waning Gibbous
Feb 11
Last Quarter
Feb 18
New
Feb 25
First Quarter
Mar 5
Full

Hourly Weather History & Observations

Time (EST) Temp. Windchill Dew Point Humidity Pressure Visibility Wind Dir Wind Speed Gust Speed Precip Events Conditions
12:53 AM 23.0 °F - 19.9 °F 88% 30.14 in 8.0 mi Calm Calm - N/A   Clear
1:53 AM 28.0 °F 24.2 °F 23.0 °F 81% 30.10 in 8.0 mi SE 3.5 mph - N/A   Clear
2:53 AM 26.1 °F - 23.0 °F 88% 30.11 in 7.0 mi Calm Calm - N/A   Clear
3:53 AM 28.0 °F 20.8 °F 24.1 °F 85% 30.07 in 8.0 mi SSE 6.9 mph - N/A   Scattered Clouds
4:53 AM 28.0 °F 22.8 °F 24.1 °F 85% 30.07 in 7.0 mi South 4.6 mph - N/A   Mostly Cloudy
5:53 AM 28.9 °F 25.2 °F 24.1 °F 82% 30.10 in 8.0 mi SW 3.5 mph - N/A   Overcast
6:53 AM 28.9 °F 25.2 °F 25.0 °F 85% 30.09 in 8.0 mi SSE 3.5 mph - N/A   Mostly Cloudy
7:53 AM 28.9 °F 25.2 °F 25.0 °F 85% 30.10 in 8.0 mi SSW 3.5 mph - N/A   Overcast
8:53 AM 30.9 °F 23.5 °F 25.0 °F 79% 30.08 in 10.0 mi South 8.1 mph - N/A   Overcast
9:53 AM 33.1 °F 25.5 °F 27.0 °F 78% 30.09 in 10.0 mi SW 9.2 mph - N/A   Partly Cloudy
10:53 AM 37.9 °F 32.1 °F 28.0 °F 68% 30.09 in 9.0 mi WSW 8.1 mph - N/A   Scattered Clouds
11:53 AM 41.0 °F 33.5 °F 28.0 °F 60% 30.07 in 10.0 mi WSW 13.8 mph - N/A   Mostly Cloudy
12:53 PM 41.0 °F 34.3 °F 28.9 °F 62% 30.06 in 10.0 mi West 11.5 mph - N/A   Overcast
1:53 PM 41.0 °F 34.7 °F 28.9 °F 62% 30.03 in 10.0 mi West 10.4 mph - N/A   Overcast
2:53 PM 39.0 °F 31.0 °F 30.0 °F 70% 30.05 in 8.0 mi West 13.8 mph 21.9 mph N/A   Overcast
3:53 PM 37.0 °F 29.8 °F 32.0 °F 82% 30.07 in 4.0 mi WNW 10.4 mph - N/A   Haze
4:04 PM 37.0 °F 32.4 °F 32.0 °F 82% 30.05 in 4.0 mi Variable 5.8 mph - N/A   Haze
4:25 PM 36.0 °F 27.5 °F 33.1 °F 89% 30.06 in 2.5 mi WNW 12.7 mph - N/A   Overcast
4:38 PM 36.0 °F 29.0 °F 33.1 °F 89% 30.06 in 4.0 mi NW 9.2 mph 17.3 mph N/A   Overcast
4:53 PM 36.0 °F 29.6 °F 33.1 °F 89% 30.08 in 4.0 mi NW 8.1 mph - N/A   Overcast
5:15 PM 36.0 °F 29.6 °F 33.1 °F 89% 30.06 in 3.0 mi WNW 8.1 mph - N/A   Overcast
5:34 PM 36.0 °F 27.5 °F 33.1 °F 89% 30.06 in 3.0 mi West 12.7 mph 17.3 mph 0.00 in Rain Light Rain
5:53 PM 35.1 °F 27.9 °F 32.0 °F 89% 30.09 in 4.0 mi WNW 9.2 mph 23.0 mph 0.00 in Rain Light Rain
6:38 PM 33.1 °F 26.1 °F 28.9 °F 85% 30.09 in 10.0 mi WNW 8.1 mph - 0.00 in   Overcast
6:53 PM 33.1 °F 26.1 °F 28.9 °F 85% 30.11 in 10.0 mi WNW 8.1 mph - 0.00 in   Overcast
7:53 PM 30.9 °F 21.2 °F 26.1 °F 82% 30.13 in 10.0 mi WNW 12.7 mph 23.0 mph N/A   Overcast
8:53 PM 30.0 °F 18.7 °F 24.1 °F 79% 30.14 in 10.0 mi WNW 16.1 mph 23.0 mph N/A   Overcast
9:53 PM 30.0 °F 23.2 °F 21.9 °F 72% 30.13 in 10.0 mi Variable 6.9 mph 23.0 mph N/A   Overcast
10:53 PM 30.0 °F 21.1 °F 19.9 °F 66% 30.11 in 10.0 mi WNW 10.4 mph 19.6 mph N/A   Overcast
11:53 PM 28.9 °F 19.8 °F 19.9 °F 69% 30.12 in 10.0 mi NW 10.4 mph 23.0 mph N/A   Overcast